| time (UTC) | temp F | wind direction | speed knots | gust knots | rain 1hr in | rain 24hr in | rain mn in | humidity % | barometer mb |
| 20260508012555 | 48 | 318 | 5.2 | 10.4 | 0.00 | 0.07 | 0.05 | 79 | 1010.8 |
| 20260508012051 | 48 | 352 | 3.5 | 11.3 | 0.00 | 0.07 | 0.05 | 78 | 1010.7 |
| 20260508011551 | 48 | 311 | 3.5 | 11.3 | 0.00 | 0.07 | 0.05 | 78 | 1010.8 |
| 20260508011053 | 48 | 338 | 4.3 | 9.6 | 0.00 | 0.07 | 0.05 | 78 | 1010.8 |
| 20260508010549 | 48 | 347 | 2.6 | 7.8 | 0.00 | 0.07 | 0.05 | 78 | 1010.6 |
| 20260508010050 | 48 | 304 | 1.7 | 9.6 | 0.00 | 0.07 | 0.05 | 77 | 1010.6 |
| 20260508005547 | 48 | 9 | 4.3 | 9.6 | 0.00 | 0.07 | 0.05 | 77 | 1010.6 |
| 20260508005052 | 48 | 356 | 3.5 | 7.8 | 0.00 | 0.07 | 0.05 | 77 | 1010.4 |
| 20260508004547 | 48 | 323 | 3.5 | 8.7 | 0.00 | 0.07 | 0.05 | 77 | 1010.4 |
| 20260508004046 | 48 | 283 | 3.5 | 9.6 | 0.00 | 0.07 | 0.05 | 77 | 1010.3 |
| 20260508003546 | 48 | 323 | 1.7 | 9.6 | 0.00 | 0.07 | 0.05 | 76 | 1010.2 |
| 20260508003045 | 49 | 127 | 2.6 | 13.0 | 0.00 | 0.07 | 0.05 | 76 | 1010.2 |
| 20260508002544 | 49 | 336 | 5.2 | 13.0 | 0.00 | 0.07 | 0.05 | 75 | 1010.1 |
| 20260508002044 | 49 | 105 | 4.3 | 13.0 | 0.00 | 0.07 | 0.05 | 75 | 1010.1 |
| 20260508001543 | 49 | 332 | 5.2 | 13.0 | 0.00 | 0.07 | 0.05 | 75 | 1010.2 |
| 20260508001043 | 49 | 304 | 3.5 | 11.3 | 0.00 | 0.07 | 0.05 | 76 | 1010.1 |
| 20260508000544 | 49 | 276 | 3.5 | 11.3 | 0.00 | 0.07 | 0.05 | 76 | 1010.1 |
| 20260508000045 | 49 | 315 | 5.2 | 19.1 | 0.00 | 0.07 | 0.05 | 77 | 1010.1 |
| 20260507235542 | 49 | 325 | 7.8 | 19.1 | 0.00 | 0.07 | 0.05 | 76 | 1010.0 |
| 20260507235045 | 50 | 270 | 7.0 | 17.4 | 0.00 | 0.07 | 0.05 | 75 | 1009.9 |
| 20260507234539 | 50 | 345 | 6.1 | 13.0 | 0.00 | 0.07 | 0.05 | 75 | 1009.9 |
| 20260507234038 | 50 | 354 | 5.2 | 10.4 | 0.00 | 0.07 | 0.05 | 74 | 1009.9 |
| 20260507233542 | 50 | 291 | 5.2 | 10.4 | 0.00 | 0.07 | 0.05 | 74 | 1009.9 |
| 20260507233042 | 50 | 290 | 4.3 | 10.4 | 0.00 | 0.07 | 0.05 | 74 | 1010.0 |
| 20260507232536 | 51 | 84 | 3.5 | 12.2 | 0.00 | 0.07 | 0.05 | 74 | 1010.0 |
| 20260507232037 | 51 | 294 | 3.5 | 13.0 | 0.00 | 0.07 | 0.05 | 75 | 1010.0 |
| 20260507231537 | 51 | 272 | 6.1 | 13.9 | 0.00 | 0.07 | 0.05 | 74 | 1010.0 |
| 20260507231034 | 51 | 262 | 5.2 | 13.9 | 0.00 | 0.07 | 0.05 | 75 | 1010.0 |
| 20260507230532 | 51 | 327 | 6.1 | 13.0 | 0.00 | 0.07 | 0.05 | 75 | 1010.0 |
| 20260507230031 | 51 | 284 | 4.3 | 13.0 | 0.00 | 0.07 | 0.05 | 74 | 1010.0 |
| 20260507225532 | 51 | 271 | 4.3 | 16.5 | 0.00 | 0.07 | 0.05 | 75 | 1010.0 |
| 20260507225032 | 51 | 292 | 5.2 | 16.5 | 0.00 | 0.07 | 0.05 | 75 | 1010.1 |
| 20260507224539 | 51 | 4 | 8.7 | 16.5 | 0.00 | 0.07 | 0.05 | 75 | 1009.6 |
| 20260507224030 | 52 | 302 | 6.1 | 15.6 | 0.00 | 0.07 | 0.05 | 75 | 1009.4 |
| 20260507223530 | 52 | 165 | 4.3 | 18.2 | 0.00 | 0.07 | 0.05 | 77 | 1009.5 |
| 20260507223033 | 51 | 326 | 6.1 | 18.2 | 0.00 | 0.07 | 0.05 | 77 | 1009.5 |
| 20260507222531 | 51 | 345 | 7.0 | 18.2 | 0.00 | 0.07 | 0.05 | 77 | 1009.3 |
| 20260507222030 | 52 | 34 | 7.8 | 15.6 | 0.00 | 0.07 | 0.05 | 76 | 1009.2 |
| 20260507221535 | 52 | 259 | 5.2 | 13.9 | 0.00 | 0.07 | 0.05 | 74 | 1009.1 |
| 20260507221028 | 53 | 12 | 2.6 | 10.4 | 0.00 | 0.07 | 0.05 | 75 | 1009.1 |
| 20260507220528 | 53 | 349 | 2.6 | 13.0 | 0.00 | 0.07 | 0.05 | 76 | 1009.0 |
| 20260507220029 | 53 | 318 | 6.1 | 13.0 | 0.00 | 0.07 | 0.05 | 76 | 1008.9 |
| 20260507215528 | 52 | 55 | 2.6 | 8.7 | 0.00 | 0.07 | 0.05 | 79 | 1008.8 |
| 20260507215027 | 52 | 345 | 5.2 | 13.0 | 0.00 | 0.07 | 0.05 | 82 | 1008.8 |
| 20260507214527 | 51 | 141 | 5.2 | 15.6 | 0.00 | 0.07 | 0.05 | 84 | 1008.8 |
| 20260507214026 | 52 | 316 | 7.8 | 15.6 | 0.00 | 0.07 | 0.05 | 83 | 1008.8 |
| 20260507213525 | 52 | 291 | 5.2 | 10.4 | 0.00 | 0.07 | 0.05 | 82 | 1008.7 |
| 20260507213024 | 53 | 34 | 2.6 | 15.6 | 0.00 | 0.07 | 0.05 | 83 | 1008.6 |
| 20260507212522 | 53 | 269 | 7.8 | 19.1 | 0.00 | 0.07 | 0.05 | 81 | 1008.4 |
| 20260507212021 | 54 | 323 | 7.0 | 19.1 | 0.00 | 0.07 | 0.05 | 79 | 1008.4 |
| 20260507211523 | 56 | 321 | 7.8 | 17.4 | 0.00 | 0.07 | 0.05 | 75 | 1008.2 |
| 20260507211018 | 58 | 297 | 3.5 | 9.6 | 0.00 | 0.07 | 0.05 | 72 | 1008.2 |
| 20260507210518 | 57 | 238 | 1.7 | 12.2 | 0.00 | 0.07 | 0.05 | 75 | 1008.0 |
| 20260507210018 | 57 | 231 | 5.2 | 13.9 | 0.00 | 0.07 | 0.05 | 74 | 1007.8 |
| 20260507205517 | 57 | 231 | 3.5 | 13.9 | 0.00 | 0.07 | 0.05 | 73 | 1007.6 |
| 20260507205016 | 58 | 333 | 7.8 | 17.4 | 0.00 | 0.07 | 0.05 | 72 | 1007.6 |
| 20260507204516 | 58 | 334 | 5.2 | 17.4 | 0.00 | 0.07 | 0.05 | 72 | 1007.6 |
| 20260507204015 | 60 | 342 | 5.2 | 13.0 | 0.00 | 0.07 | 0.05 | 70 | 1007.5 |
| 20260507203518 | 60 | 252 | 6.1 | 13.9 | 0.00 | 0.07 | 0.05 | 68 | 1007.6 |
| 20260507203015 | 60 | 257 | 4.3 | 13.9 | 0.00 | 0.07 | 0.05 | 68 | 1007.5 |
| 20260507202514 | 61 | 83 | 3.5 | 11.3 | 0.00 | 0.07 | 0.05 | 68 | 1007.3 |
| 20260507202016 | 60 | 234 | 1.7 | 13.0 | 0.00 | 0.07 | 0.05 | 69 | 1007.1 |
| 20260507201514 | 60 | 269 | 2.6 | 13.0 | 0.00 | 0.07 | 0.05 | 71 | 1007.2 |
| 20260507201014 | 60 | 292 | 4.3 | 10.4 | 0.00 | 0.07 | 0.05 | 70 | 1007.1 |
| 20260507200513 | 60 | 325 | 2.6 | 12.2 | 0.00 | 0.07 | 0.05 | 71 | 1007.1 |
| 20260507200013 | 61 | 23 | 2.6 | 12.2 | 0.00 | 0.07 | 0.05 | 71 | 1007.0 |
| 20260507195516 | 61 | 210 | 5.2 | 11.3 | 0.00 | 0.07 | 0.05 | 69 | 1007.2 |
| 20260507195015 | 61 | 271 | 4.3 | 13.0 | 0.00 | 0.07 | 0.05 | 70 | 1007.2 |
| 20260507194515 | 61 | 321 | 4.3 | 17.4 | 0.00 | 0.07 | 0.05 | 71 | 1007.3 |
| 20260507194012 | 60 | 247 | 3.5 | 17.4 | 0.00 | 0.07 | 0.05 | 73 | 1007.3 |
| 20260507193511 | 61 | 328 | 5.2 | 17.4 | 0.00 | 0.07 | 0.05 | 71 | 1007.2 |
| 20260507193010 | 62 | 337 | 6.1 | 17.4 | 0.00 | 0.07 | 0.05 | 68 | 1007.3 |
| 20260507192510 | 63 | 189 | 4.3 | 13.0 | 0.00 | 0.07 | 0.05 | 67 | 1007.3 |
| 20260507192010 | 63 | 139 | 4.3 | 12.2 | 0.00 | 0.07 | 0.05 | 66 | 1007.3 |
| 20260507191510 | 64 | 293 | 4.3 | 12.2 | 0.00 | 0.07 | 0.05 | 65 | 1007.4 |
| 20260507191009 | 64 | 194 | 3.5 | 10.4 | 0.00 | 0.07 | 0.05 | 64 | 1007.4 |
| 20260507190510 | 65 | 125 | 4.3 | 18.2 | 0.00 | 0.07 | 0.05 | 65 | 1007.5 |
| 20260507190010 | 64 | 118 | 2.6 | 18.2 | 0.00 | 0.07 | 0.05 | 66 | 1007.6 |
| 20260507185509 | 66 | 321 | 3.5 | 9.6 | 0.00 | 0.07 | 0.05 | 62 | 1007.6 |
| 20260507185009 | 67 | 258 | 4.3 | 9.6 | 0.00 | 0.07 | 0.05 | 62 | 1007.6 |
| 20260507184508 | 67 | 288 | 1.7 | 7.8 | 0.00 | 0.07 | 0.05 | 64 | 1007.7 |
| 20260507184008 | 66 | 221 | 2.6 | 7.8 | 0.00 | 0.07 | 0.05 | 64 | 1007.7 |
| 20260507183509 | 65 | 204 | 1.7 | 13.9 | 0.00 | 0.07 | 0.05 | 66 | 1007.6 |
| 20260507183011 | 64 | 141 | 5.2 | 13.9 | 0.00 | 0.07 | 0.05 | 68 | 1007.7 |
| 20260507182507 | 65 | 328 | 2.6 | 13.9 | 0.00 | 0.07 | 0.05 | 66 | 1007.7 |
| 20260507182007 | 65 | 206 | 5.2 | 13.9 | 0.00 | 0.07 | 0.05 | 65 | 1007.7 |
| 20260507181506 | 65 | 39 | 1.7 | 8.7 | 0.00 | 0.07 | 0.05 | 69 | 1007.7 |
| 20260507181009 | 65 | 40 | 4.3 | 11.3 | 0.00 | 0.07 | 0.05 | 67 | 1007.7 |
| 20260507180506 | 65 | 157 | 4.3 | 13.0 | 0.00 | 0.07 | 0.05 | 68 | 1007.5 |
| 20260507180009 | 65 | 290 | 6.1 | 13.0 | 0.00 | 0.07 | 0.05 | 67 | 1007.3 |
| 20260507175505 | 67 | 338 | 5.2 | 11.3 | 0.00 | 0.07 | 0.05 | 65 | 1007.3 |
| 20260507175005 | 67 | 328 | 3.5 | 11.3 | 0.00 | 0.07 | 0.05 | 62 | 1007.2 |
| 20260507174505 | 68 | 46 | 3.5 | 10.4 | 0.00 | 0.07 | 0.05 | 61 | 1007.3 |
| 20260507174004 | 68 | 18 | 3.5 | 10.4 | 0.00 | 0.07 | 0.05 | 61 | 1007.5 |
| 20260507173505 | 68 | 282 | 3.5 | 8.7 | 0.00 | 0.07 | 0.05 | 60 | 1007.5 |
| 20260507173010 | 68 | 101 | 1.7 | 9.6 | 0.00 | 0.07 | 0.05 | 62 | 1007.5 |
| 20260507172503 | 68 | 153 | 2.6 | 10.4 | 0.00 | 0.07 | 0.05 | 62 | 1007.2 |
| 20260507172003 | 68 | 349 | 3.5 | 10.4 | 0.00 | 0.07 | 0.05 | 61 | 1007.2 |
| 20260507171508 | 69 | 293 | 1.7 | 5.2 | 0.00 | 0.07 | 0.05 | 62 | 1007.3 |
| 20260507171003 | 68 | 278 | 1.7 | 12.2 | 0.00 | 0.07 | 0.05 | 63 | 1007.2 |
| 20260507170503 | 68 | 217 | 5.2 | 12.2 | 0.00 | 0.07 | 0.05 | 62 | 1007.3 |
| 20260507170003 | 68 | 327 | 3.5 | 9.6 | 0.00 | 0.07 | 0.05 | 61 | 1007.4 |
| 20260507165501 | 68 | 156 | 1.7 | 7.0 | 0.00 | 0.07 | 0.05 | 62 | 1007.3 |
| 20260507165001 | 67 | 243 | 1.7 | 7.0 | 0.00 | 0.07 | 0.05 | 63 | 1007.3 |
| 20260507164607 | 67 | 321 | 2.6 | 7.0 | 0.00 | 0.07 | 0.05 | 62 | 1007.5 |
| 20260507164100 | 67 | 144 | 2.6 | 7.0 | 0.00 | 0.07 | 0.05 | 64 | 1007.6 |
| 20260507163600 | 66 | 311 | 2.6 | 8.7 | 0.00 | 0.07 | 0.05 | 68 | 1007.6 |
| 20260507163059 | 67 | 326 | 3.5 | 8.7 | 0.00 | 0.07 | 0.05 | 67 | 1007.7 |
| 20260507162659 | 66 | 226 | 1.7 | 7.0 | 0.00 | 0.07 | 0.05 | 69 | 1007.6 |
| 20260507162057 | 66 | 248 | 0.9 | 6.1 | 0.00 | 0.07 | 0.05 | 69 | 1007.7 |
| 20260507161601 | 67 | 217 | 0.9 | 6.1 | 0.00 | 0.07 | 0.05 | 70 | 1007.6 |
| 20260507161058 | 66 | 230 | 1.7 | 4.3 | 0.00 | 0.07 | 0.05 | 70 | 1007.7 |
| 20260507160558 | 66 | 300 | 0.0 | 6.1 | 0.00 | 0.07 | 0.05 | 73 | 1007.8 |
| 20260507160059 | 66 | 267 | 0.9 | 6.1 | 0.00 | 0.07 | 0.05 | 71 | 1007.6 |
| 20260507155557 | 66 | 327 | 2.6 | 7.0 | 0.00 | 0.07 | 0.05 | 69 | 1007.6 |
| 20260507155106 | 68 | 347 | 3.5 | 7.0 | 0.00 | 0.07 | 0.05 | 66 | 1007.5 |
| 20260507154600 | 69 | 27 | 0.9 | 5.2 | 0.00 | 0.07 | 0.05 | 69 | 1007.5 |
| 20260507154057 | 68 | 208 | 0.9 | 6.1 | 0.00 | 0.07 | 0.05 | 69 | 1007.5 |
| 20260507153554 | 66 | 213 | 1.7 | 6.1 | 0.00 | 0.07 | 0.05 | 73 | 1007.6 |
| 20260507153056 | 65 | 157 | 0.0 | 4.3 | 0.00 | 0.07 | 0.05 | 81 | 1007.6 |
| 20260507152558 | 63 | 297 | 1.7 | 4.3 | 0.00 | 0.07 | 0.05 | 80 | 1007.8 |
| 20260507152054 | 64 | 349 | 0.9 | 3.5 | 0.00 | 0.07 | 0.05 | 78 | 1007.7 |
| 20260507151553 | 65 | 15 | 0.9 | 5.2 | 0.00 | 0.07 | 0.05 | 77 | 1007.7 |
| 20260507151053 | 65 | 224 | 1.7 | 8.7 | 0.00 | 0.07 | 0.05 | 76 | 1007.6 |
| 20260507150554 | 66 | 231 | 2.6 | 8.7 | 0.00 | 0.07 | 0.05 | 75 | 1007.6 |
| 20260507150053 | 67 | 179 | 0.9 | 3.5 | 0.00 | 0.07 | 0.05 | 72 | 1007.6 |
| 20260507145551 | 66 | 158 | 1.7 | 3.5 | 0.00 | 0.07 | 0.05 | 75 | 1007.6 |
| 20260507145050 | 65 | 248 | 0.0 | 3.5 | 0.00 | 0.07 | 0.05 | 78 | 1007.8 |
| 20260507144549 | 66 | 224 | 0.0 | 4.3 | 0.00 | 0.07 | 0.05 | 81 | 1007.9 |
| 20260507144048 | 64 | 168 | 0.9 | 5.2 | 0.00 | 0.07 | 0.05 | 81 | 1008.0 |
| 20260507143550 | 64 | 204 | 1.7 | 5.2 | 0.00 | 0.07 | 0.05 | 79 | 1007.9 |
| 20260507143052 | 65 | 240 | 0.0 | 2.6 | 0.00 | 0.07 | 0.05 | 82 | 1007.9 |
| 20260507142546 | 64 | 235 | 0.0 | 0.9 | 0.00 | 0.07 | 0.05 | 87 | 1008.1 |
| 20260507142044 | 63 | 235 | 0.0 | 1.7 | 0.00 | 0.07 | 0.05 | 87 | 1008.2 |
| 20260507141551 | 63 | 205 | 0.0 | 0.9 | 0.00 | 0.07 | 0.05 | 88 | 1008.1 |
| 20260507141044 | 63 | 205 | 0.0 | 0.9 | 0.00 | 0.07 | 0.05 | 88 | 1008.4 |
| 20260507140545 | 63 | 205 | 0.0 | 0.0 | 0.00 | 0.07 | 0.05 | 89 | 1008.2 |
| 20260507140044 | 62 | 205 | 0.0 | 1.7 | 0.00 | 0.07 | 0.05 | 89 | 1008.3 |
| 20260507135544 | 62 | 205 | 0.0 | 1.7 | 0.00 | 0.07 | 0.05 | 89 | 1008.1 |
| 20260507135042 | 62 | 209 | 0.9 | 1.7 | 0.00 | 0.07 | 0.05 | 93 | 1008.0 |
| 20260507134540 | 61 | 343 | 0.0 | 0.9 | 0.00 | 0.07 | 0.05 | 95 | 1008.1 |
| 20260507134038 | 60 | 343 | 0.0 | 0.9 | 0.00 | 0.07 | 0.05 | 94 | 1008.0 |
| 20260507133538 | 60 | 343 | 0.0 | 1.7 | 0.00 | 0.07 | 0.05 | 94 | 1008.3 |
| 20260507133055 | 59 | 343 | 0.9 | 1.7 | 0.00 | 0.07 | 0.05 | 93 | 1008.3 |
| 20260507132539 | 60 | 351 | 0.0 | 1.7 | 0.00 | 0.07 | 0.05 | 93 | 1008.3 |
| 20260507132038 | 60 | 120 | 0.0 | 0.9 | 0.00 | 0.07 | 0.05 | 94 | 1008.2 |
| 20260507131548 | 60 | 120 | 0.0 | 0.0 | 0.00 | 0.07 | 0.05 | 95 | 1008.1 |
| 20260507131036 | 60 | 120 | 0.0 | 0.9 | 0.00 | 0.07 | 0.05 | 95 | 1008.4 |
| 20260507130535 | 60 | 120 | 0.0 | 0.9 | 0.00 | 0.07 | 0.05 | 96 | 1008.4 |
| 20260507130042 | 59 | 120 | 0.0 | 0.9 | 0.00 | 0.07 | 0.05 | 96 | 1008.3 |
| 20260507125534 | 59 | 120 | 0.0 | 0.9 | 0.00 | 0.07 | 0.05 | 96 | 1008.3 |
| 20260507125032 | 58 | 120 | 0.0 | 0.9 | 0.00 | 0.07 | 0.05 | 96 | 1008.3 |
| 20260507124533 | 58 | 120 | 0.0 | 0.9 | 0.00 | 0.07 | 0.05 | 96 | 1008.7 |
| 20260507124029 | 58 | 120 | 0.0 | 0.9 | 0.00 | 0.07 | 0.05 | 96 | 1008.6 |
| 20260507123529 | 57 | 120 | 0.0 | 0.9 | 0.00 | 0.07 | 0.05 | 96 | 1008.6 |
| 20260507123031 | 57 | 120 | 0.0 | 0.9 | 0.00 | 0.07 | 0.05 | 96 | 1008.5 |
| 20260507122529 | 57 | 120 | 0.0 | 0.9 | 0.00 | 0.07 | 0.05 | 96 | 1008.9 |
| 20260507122030 | 56 | 120 | 0.0 | 0.9 | 0.00 | 0.07 | 0.05 | 96 | 1009.0 |
| 20260507121529 | 56 | 120 | 0.0 | 0.9 | 0.00 | 0.07 | 0.05 | 96 | 1009.2 |
| 20260507121028 | 56 | 120 | 0.0 | 0.9 | 0.00 | 0.07 | 0.05 | 96 | 1009.2 |
| 20260507120528 | 56 | 120 | 0.0 | 0.0 | 0.00 | 0.07 | 0.05 | 96 | 1009.2 |
| 20260507120028 | 56 | 120 | 0.0 | 0.0 | 0.00 | 0.07 | 0.05 | 96 | 1009.3 |
| 20260507115528 | 56 | 120 | 0.0 | 0.0 | 0.00 | 0.07 | 0.05 | 95 | 1009.4 |
| 20260507115031 | 56 | 120 | 0.0 | 0.0 | 0.01 | 0.07 | 0.05 | 95 | 1009.4 |
| 20260507114527 | 56 | 120 | 0.0 | 0.0 | 0.01 | 0.07 | 0.05 | 95 | 1009.4 |
| 20260507114026 | 56 | 120 | 0.0 | 0.0 | 0.01 | 0.07 | 0.05 | 95 | 1009.4 |
| 20260507113527 | 56 | 120 | 0.0 | 0.0 | 0.01 | 0.07 | 0.05 | 95 | 1009.3 |
| 20260507113026 | 56 | 120 | 0.0 | 0.0 | 0.01 | 0.07 | 0.05 | 95 | 1009.2 |
| 20260507112529 | 56 | 120 | 0.0 | 0.0 | 0.02 | 0.07 | 0.05 | 95 | 1009.2 |
| 20260507112026 | 56 | 120 | 0.0 | 0.9 | 0.03 | 0.07 | 0.05 | 95 | 1008.9 |
| 20260507111526 | 56 | 120 | 0.0 | 1.7 | 0.03 | 0.07 | 0.05 | 95 | 1009.0 |
| 20260507111025 | 56 | 120 | 0.0 | 1.7 | 0.03 | 0.07 | 0.05 | 95 | 1008.7 |
| 20260507110526 | 56 | 96 | 0.0 | 1.7 | 0.03 | 0.07 | 0.05 | 95 | 1008.7 |
| 20260507110026 | 56 | 96 | 0.0 | 1.7 | 0.03 | 0.07 | 0.05 | 95 | 1009.0 |
| 20260507105526 | 56 | 96 | 0.9 | 1.7 | 0.03 | 0.07 | 0.05 | 95 | 1008.6 |
| 20260507105028 | 56 | 356 | 0.0 | 0.9 | 0.02 | 0.06 | 0.04 | 95 | 1008.9 |
| 20260507104524 | 56 | 356 | 0.0 | 0.9 | 0.02 | 0.06 | 0.04 | 95 | 1008.9 |
| 20260507104024 | 56 | 356 | 0.0 | 0.9 | 0.02 | 0.06 | 0.04 | 95 | 1008.8 |
| 20260507103522 | 56 | 356 | 0.0 | 0.9 | 0.02 | 0.06 | 0.04 | 95 | 1008.6 |
| 20260507103023 | 56 | 356 | 0.0 | 2.6 | 0.02 | 0.06 | 0.04 | 95 | 1008.4 |
| 20260507102522 | 56 | 356 | 0.9 | 2.6 | 0.01 | 0.05 | 0.03 | 95 | 1008.5 |
| 20260507102023 | 56 | 228 | 0.0 | 1.7 | 0.00 | 0.04 | 0.02 | 95 | 1008.6 |
| 20260507101522 | 56 | 202 | 0.0 | 2.6 | 0.00 | 0.04 | 0.02 | 95 | 1008.7 |
| 20260507101023 | 56 | 255 | 0.9 | 1.7 | 0.00 | 0.04 | 0.02 | 95 | 1008.9 |
| 20260507100522 | 56 | 134 | 0.0 | 0.9 | 0.00 | 0.04 | 0.02 | 95 | 1008.6 |
| 20260507100022 | 56 | 134 | 0.0 | 0.9 | 0.00 | 0.04 | 0.02 | 95 | 1008.5 |
| 20260507095522 | 56 | 245 | 0.0 | 1.7 | 0.00 | 0.04 | 0.02 | 95 | 1008.6 |
| 20260507095022 | 56 | 245 | 0.0 | 1.7 | 0.00 | 0.04 | 0.02 | 95 | 1008.7 |
| 20260507094521 | 56 | 346 | 0.0 | 0.9 | 0.00 | 0.04 | 0.02 | 95 | 1008.7 |
| 20260507094021 | 56 | 346 | 0.0 | 0.9 | 0.00 | 0.04 | 0.02 | 95 | 1008.8 |
| 20260507093521 | 56 | 346 | 0.0 | 0.9 | 0.00 | 0.04 | 0.02 | 95 | 1008.7 |
| 20260507093025 | 56 | 346 | 0.0 | 0.9 | 0.00 | 0.04 | 0.02 | 95 | 1008.8 |
| 20260507092521 | 56 | 346 | 0.0 | 0.9 | 0.00 | 0.04 | 0.02 | 95 | 1008.7 |
| 20260507092020 | 56 | 346 | 0.0 | 0.9 | 0.00 | 0.04 | 0.02 | 95 | 1008.6 |
| 20260507091529 | 56 | 346 | 0.0 | 0.9 | 0.00 | 0.04 | 0.02 | 95 | 1008.6 |
| 20260507091021 | 56 | 346 | 0.0 | 0.0 | 0.00 | 0.04 | 0.02 | 95 | 1008.7 |
| 20260507090523 | 56 | 346 | 0.0 | 0.0 | 0.00 | 0.04 | 0.02 | 95 | 1008.7 |
| 20260507090023 | 56 | 346 | 0.0 | 0.0 | 0.00 | 0.04 | 0.02 | 95 | 1008.6 |
| 20260507085519 | 56 | 346 | 0.0 | 0.9 | 0.00 | 0.04 | 0.02 | 95 | 1008.6 |
| 20260507085018 | 56 | 346 | 0.0 | 1.7 | 0.00 | 0.04 | 0.02 | 95 | 1008.5 |
| 20260507084517 | 56 | 346 | 0.9 | 1.7 | 0.00 | 0.04 | 0.02 | 95 | 1008.4 |
| 20260507084017 | 56 | 346 | 0.9 | 1.7 | 0.00 | 0.04 | 0.02 | 95 | 1008.6 |
| 20260507083516 | 56 | 346 | 0.9 | 1.7 | 0.00 | 0.04 | 0.02 | 95 | 1008.6 |
| 20260507083016 | 57 | 346 | 0.0 | 0.9 | 0.00 | 0.04 | 0.02 | 95 | 1008.7 |
| 20260507082516 | 57 | 346 | 0.0 | 0.9 | 0.00 | 0.04 | 0.02 | 95 | 1008.7 |
| 20260507082015 | 57 | 346 | 0.0 | 0.9 | 0.00 | 0.04 | 0.02 | 95 | 1008.9 |
| 20260507081516 | 57 | 346 | 0.0 | 0.9 | 0.00 | 0.04 | 0.02 | 95 | 1008.9 |
| 20260507081015 | 57 | 346 | 0.0 | 0.9 | 0.00 | 0.04 | 0.02 | 95 | 1009.0 |
| 20260507080515 | 57 | 346 | 0.0 | 0.9 | 0.00 | 0.04 | 0.02 | 95 | 1009.1 |
| 20260507080014 | 57 | 346 | 0.0 | 0.9 | 0.02 | 0.04 | 0.02 | 95 | 1009.3 |
| 20260507075517 | 57 | 346 | 0.0 | 2.6 | 0.02 | 0.04 | 0.02 | 95 | 1009.3 |
| 20260507075017 | 57 | 346 | 0.9 | 2.6 | 0.02 | 0.04 | 0.02 | 95 | 1009.3 |
| 20260507074514 | 57 | 245 | 0.0 | 1.7 | 0.02 | 0.04 | 0.02 | 95 | 1009.3 |
| 20260507074012 | 57 | 358 | 0.0 | 0.9 | 0.02 | 0.04 | 0.02 | 95 | 1009.0 |
| 20260507073513 | 57 | 358 | 0.0 | 2.6 | 0.02 | 0.04 | 0.02 | 95 | 1008.8 |
| 20260507073012 | 57 | 358 | 0.9 | 4.3 | 0.02 | 0.04 | 0.02 | 95 | 1008.6 |
| 20260507072514 | 57 | 335 | 1.7 | 3.5 | 0.02 | 0.04 | 0.02 | 95 | 1009.0 |
| 20260507072010 | 57 | 174 | 0.0 | 0.9 | 0.02 | 0.04 | 0.02 | 95 | 1008.8 |
| 20260507071511 | 57 | 174 | 0.0 | 0.9 | 0.02 | 0.04 | 0.02 | 95 | 1008.9 |
| 20260507071012 | 57 | 174 | 0.0 | 0.0 | 0.02 | 0.04 | 0.02 | 94 | 1009.0 |
| 20260507070512 | 57 | 174 | 0.0 | 1.7 | 0.02 | 0.04 | 0.02 | 94 | 1008.9 |
| 20260507070013 | 58 | 174 | 0.0 | 4.3 | 0.00 | 0.02 | 0.00 | 94 | 1008.9 |
| 20260507065509 | 57 | 178 | 0.9 | 4.3 | 0.00 | 0.02 | 0.00 | 95 | 1009.3 |
| 20260507065009 | 57 | 224 | 0.9 | 3.5 | 0.00 | 0.02 | 0.00 | 95 | 1009.4 |
| 20260507064509 | 57 | 143 | 0.9 | 2.6 | 0.00 | 0.02 | 0.00 | 95 | 1009.3 |
| 20260507064008 | 57 | 163 | 0.0 | 2.6 | 0.00 | 0.02 | 0.00 | 94 | 1009.2 |
| 20260507063509 | 57 | 149 | 0.0 | 1.7 | 0.00 | 0.02 | 0.00 | 94 | 1009.3 |
| 20260507063008 | 57 | 207 | 0.0 | 0.9 | 0.00 | 0.02 | 0.00 | 94 | 1009.4 |
| 20260507062507 | 57 | 196 | 0.0 | 3.5 | 0.00 | 0.02 | 0.00 | 95 | 1009.5 |
| 20260507062007 | 57 | 204 | 1.7 | 5.2 | 0.00 | 0.02 | 0.00 | 95 | 1009.6 |
| 20260507061507 | 57 | 174 | 1.7 | 5.2 | 0.00 | 0.02 | 0.00 | 95 | 1009.4 |
| 20260507061006 | 57 | 162 | 0.9 | 5.2 | 0.00 | 0.02 | 0.00 | 95 | 1009.5 |
| 20260507060506 | 57 | 158 | 1.7 | 5.2 | 0.00 | 0.02 | 0.00 | 95 | 1009.7 |
| 20260507060005 | 57 | 110 | 1.7 | 3.5 | 0.00 | 0.02 | 0.00 | 95 | 1009.8 |
| 20260507055504 | 57 | 158 | 0.9 | 3.5 | 0.00 | 0.02 | 0.00 | 95 | 1009.9 |
| 20260507055005 | 57 | 143 | 0.9 | 2.6 | 0.00 | 0.02 | 0.00 | 95 | 1009.9 |
| 20260507054511 | 57 | 174 | 1.7 | 3.5 | 0.00 | 0.02 | 0.00 | 94 | 1010.0 |
| 20260507054003 | 57 | 181 | 0.9 | 3.5 | 0.00 | 0.02 | 0.00 | 94 | 1010.2 |
| 20260507053503 | 57 | 165 | 0.9 | 2.6 | 0.00 | 0.02 | 0.00 | 94 | 1010.0 |
| 20260507053001 | 57 | 148 | 0.9 | 2.6 | 0.00 | 0.02 | 0.00 | 94 | 1010.2 |
| 20260507052502 | 57 | 148 | 0.9 | 2.6 | 0.00 | 0.02 | 0.00 | 94 | 1010.5 |
| 20260507052002 | 57 | 203 | 0.0 | 1.7 | 0.00 | 0.02 | 0.00 | 94 | 1010.5 |
| 20260507051501 | 57 | 203 | 0.0 | 2.6 | 0.00 | 0.02 | 0.00 | 94 | 1010.4 |
| 20260507051101 | 57 | 171 | 0.9 | 2.6 | 0.00 | 0.02 | 0.00 | 94 | 1010.4 |
| 20260507050600 | 57 | 107 | 0.0 | 1.7 | 0.00 | 0.02 | 0.00 | 94 | 1010.3 |
| 20260507050100 | 57 | 107 | 0.0 | 1.7 | 0.00 | 0.02 | 0.00 | 94 | 1010.3 |
| 20260507045559 | 57 | 169 | 0.9 | 1.7 | 0.00 | 0.02 | 0.00 | 93 | 1010.3 |
| 20260507045057 | 57 | 146 | 0.9 | 1.7 | 0.00 | 0.02 | 0.00 | 93 | 1010.9 |
| 20260507044558 | 58 | 269 | 0.0 | 1.7 | 0.00 | 0.02 | 0.00 | 93 | 1011.4 |
| 20260507044057 | 58 | 221 | 0.0 | 2.6 | 0.00 | 0.02 | 0.00 | 93 | 1011.6 |
| 20260507043556 | 58 | 221 | 0.0 | 2.6 | 0.00 | 0.02 | 0.00 | 93 | 1011.4 |
| 20260507043056 | 58 | 238 | 0.0 | 2.6 | 0.00 | 0.02 | 0.00 | 93 | 1011.2 |
| 20260507042556 | 58 | 214 | 0.0 | 5.2 | 0.00 | 0.02 | 0.00 | 93 | 1011.4 |
| 20260507042054 | 57 | 201 | 0.9 | 5.2 | 0.00 | 0.02 | 0.00 | 94 | 1011.8 |
| 20260507041554 | 57 | 248 | 1.7 | 4.3 | 0.00 | 0.02 | 0.00 | 94 | 1011.6 |
| 20260507041052 | 57 | 144 | 0.0 | 1.7 | 0.00 | 0.02 | 0.00 | 94 | 1011.3 |
| 20260507040551 | 57 | 232 | 0.0 | 0.9 | 0.00 | 0.02 | 0.00 | 94 | 1011.3 |
| 20260507040054 | 57 | 232 | 0.0 | 0.9 | 0.00 | 0.02 | 0.00 | 94 | 1011.3 |
| 20260507035549 | 57 | 134 | 0.0 | 0.9 | 0.00 | 0.02 | 0.02 | 94 | 1011.3 |
| 20260507035150 | 57 | 134 | 0.0 | 0.9 | 0.00 | 0.02 | 0.02 | 94 | 1011.3 |
| 20260507034554 | 57 | 134 | 0.0 | 2.6 | 0.00 | 0.02 | 0.02 | 94 | 1011.1 |
| 20260507034048 | 57 | 134 | 0.0 | 2.6 | 0.00 | 0.02 | 0.02 | 94 | 1010.8 |
| 20260507033548 | 57 | 158 | 0.9 | 2.6 | 0.00 | 0.02 | 0.02 | 94 | 1011.1 |
| 20260507033052 | 57 | 189 | 0.0 | 1.7 | 0.00 | 0.02 | 0.02 | 93 | 1011.0 |
| 20260507032549 | 58 | 203 | 0.0 | 1.7 | 0.01 | 0.02 | 0.02 | 93 | 1010.9 |
| 20260507032047 | 58 | 208 | 0.0 | 1.7 | 0.01 | 0.02 | 0.02 | 93 | 1010.6 |
| 20260507031548 | 58 | 237 | 0.0 | 1.7 | 0.01 | 0.02 | 0.02 | 93 | 1010.3 |
| 20260507031048 | 58 | 237 | 0.0 | 1.7 | 0.01 | 0.02 | 0.02 | 93 | 1010.3 |
| 20260507030546 | 58 | 237 | 0.0 | 0.9 | 0.01 | 0.02 | 0.02 | 92 | 1010.2 |
| 20260507030047 | 58 | 236 | 0.0 | 0.9 | 0.02 | 0.02 | 0.02 | 92 | 1010.2 |
| 20260507025546 | 58 | 237 | 0.0 | 1.7 | 0.02 | 0.02 | 0.02 | 92 | 1010.2 |
| 20260507025046 | 58 | 214 | 0.0 | 1.7 | 0.02 | 0.02 | 0.02 | 92 | 1010.6 |
| 20260507024555 | 58 | 228 | 0.0 | 2.6 | 0.02 | 0.02 | 0.02 | 91 | 1010.3 |
| 20260507024046 | 58 | 227 | 0.0 | 2.6 | 0.02 | 0.02 | 0.02 | 91 | 1010.4 |
| 20260507023548 | 59 | 138 | 0.0 | 4.3 | 0.02 | 0.02 | 0.02 | 91 | 1010.1 |
| 20260507023049 | 59 | 94 | 1.7 | 5.2 | 0.02 | 0.02 | 0.02 | 89 | 1010.5 |
| 20260507022546 | 59 | 328 | 0.9 | 7.0 | 0.01 | 0.01 | 0.01 | 89 | 1011.8 |
| 20260507022045 | 59 | 247 | 1.7 | 7.0 | 0.01 | 0.01 | 0.01 | 89 | 1011.8 |
| 20260507021645 | 59 | 201 | 0.0 | 7.0 | 0.01 | 0.01 | 0.01 | 89 | 1011.7 |
| 20260507021044 | 59 | 207 | 1.7 | 8.7 | 0.01 | 0.01 | 0.01 | 88 | 1011.6 |
| 20260507020545 | 60 | 267 | 3.5 | 12.2 | 0.01 | 0.01 | 0.01 | 88 | 1011.6 |
| 20260507020104 | 60 | 250 | 2.6 | 12.2 | 0.00 | 0.00 | 0.00 | 87 | 1011.7 |
| 20260507015543 | 60 | 200 | 0.9 | 12.2 | 0.00 | 0.00 | 0.00 | 87 | 1011.8 |
| 20260507015043 | 60 | 305 | 4.3 | 12.2 | 0.00 | 0.00 | 0.00 | 86 | 1011.7 |
| 20260507014546 | 60 | 208 | 0.9 | 7.0 | 0.00 | 0.00 | 0.00 | 86 | 1011.6 |
| 20260507014042 | 60 | 202 | 2.6 | 8.7 | 0.00 | 0.00 | 0.00 | 86 | 1011.4 |
| 20260507013541 | 61 | 110 | 2.6 | 8.7 | 0.00 | 0.00 | 0.00 | 85 | 1011.0 |
| 20260507013051 | 61 | 170 | 1.7 | 8.7 | 0.00 | 0.00 | 0.00 | 85 | 1011.0 |